Location: Bella Coola
(52.3721°N, 126.7539°W)
Time: 19:29:42
(UTC-07:00)

ISS - Pass Details

Date: 23 May 2019
Orbit: 408 x 418 km, 51.6° (Epoch: 16 June)

Event Time Altitude Azimuth Distance (km) Brightness Sun altitude
Rises 22:04:59 0° 249° (WSW) 2,349 0.4 -5.1°
Reaches altitude 10° 22:07:05 10° 246° (WSW) 1,490 -0.7 -5.3°
Maximum altitude 22:10:23 62° 166° (SSE) 476 -3.7 -5.7°
Drops below altitude 10° 22:13:43 10° 85° (E) 1,500 -1.3 -6.1°
Sets 22:15:50 0° 82° (E) 2,367 -0.3 -6.3°
